La Paz, Mexico

1:44 PM MST on January 16, 2018 (GMT -0700)
Gen Manuel Marquez De Leon

Weather History for MMLP - October, 2013

Change the Weather History Date:

Friday, October 4, 2013

  Actual Average Record
Temperature  
Mean Temperature 82 °F -  
Max Temperature 96 °F 89 °F 100 °F (2011)
Min Temperature 68 °F 66 °F 68 °F (2013)
Cooling Degree Days 17    
Growing Degree Days 32 (Base 50)    
Moisture  
Dew Point 60 °F    
Average Humidity 49    
Maximum Humidity 78    
Minimum Humidity 26    
Precipitation  
Precipitation 0.00 in - - ()
Sea Level Pressure  
Sea Level Pressure 29.89 in    
Wind  
Wind Speed 7 mph ()    
Max Wind Speed 13 mph    
Max Gust Speed -    
Visibility 11.0 miles    
Events      
Averages and records for this station are not official NWS values.
T = Trace of Precipitation, MM = Missing Value Source: Averaged Metar Reports

Daily Weather History Graph

Daily Weather History Graph

Search for Another Location

Airport or City:

Trip Planner

Search our weather history database for the weather conditions in past years. The results will help you decide how hot, cold, wet, or windy it might be!

Date:

Astronomy

Oct. 04, 2013 Rise Set
Actual Time 7:14 AM MDT 7:05 PM MDT
Civil Twilight 6:51 AM MDT 7:27 PM MDT
Nautical Twilight 6:25 AM MDT 7:54 PM MDT
Astronomical Twilight 5:59 AM MDT 8:20 PM MDT
Moon 6:52 AM MDT (10/4) 6:54 PM MDT (10/4)
Length of Visible Light 12h 35m
Length of Day
11h 50m
Waning Crescent, 0% of the Moon is Illuminated
Oct 4
Waning Crescent
Oct 4
New
Oct 11
First Quarter
Oct 18
Full
Oct 26
Last Quarter

Hourly Weather History & Observations

Time (MDT) Temp. Heat Index Dew Point Humidity Pressure Visibility Wind Dir Wind Speed Gust Speed Precip Events Conditions
2:50 AM 74 °F - 68 °F 76% 29.84 in 2 mi WSW 6.7 mph - -   Scattered Clouds
5:40 AM 70 °F - 63 °F 72% 29.87 in 2 mi South 6.7 mph - -  
6:06 AM 66.2 °F - 59.0 °F 78% 29.91 in 10.0 mi SSE 6.9 mph - N/A   Clear
6:47 AM 66.2 °F - 59.0 °F 78% 29.87 in 10.0 mi SSE 6.9 mph - N/A   Clear
7:45 AM 66.2 °F - 59.0 °F 78% 29.88 in 10.0 mi South 8.1 mph - N/A   Clear
8:40 AM 74 °F - 61 °F 56% 29.93 in 16 mi South 8.9 mph - -  
8:49 AM 69.8 °F - 60.8 °F 73% 29.96 in 12.0 mi South 8.1 mph - N/A   Clear
9:44 AM 75.2 °F - 62.6 °F 65% 29.92 in 12.0 mi South 12.7 mph - N/A   Clear
10:41 AM 78.8 °F - 60.8 °F 54% 29.93 in 12.0 mi South 6.9 mph - N/A   Clear
11:42 AM 84.2 °F 83.5 °F 57.2 °F 40% 29.96 in 12.0 mi SSW 8.1 mph - N/A   Clear
11:50 AM 88 °F - 65 °F 36% 29.91 in 19 mi South 8.9 mph - -  
12:40 PM 86.0 °F 84.5 °F 55.4 °F 35% 29.89 in 12.0 mi SW 11.5 mph - N/A   Clear
1:40 PM 89.6 °F 87.7 °F 55.4 °F 31% 29.87 in 12.0 mi SW 6.9 mph - N/A   Clear
2:43 PM 89.6 °F 87.3 °F 53.6 °F 29% 29.90 in 12.0 mi SW 9.2 mph - N/A   Clear
2:50 PM 95 °F - 64 °F 26% 29.84 in 19 mi SSW 6.7 mph - -  
3:41 PM 91.4 °F 89.1 °F 53.6 °F 28% 29.84 in 12.0 mi South 9.2 mph - N/A   Clear
4:51 PM 89.6 °F 87.7 °F 55.4 °F 31% 29.83 in 10.0 mi SSW 6.9 mph - N/A   Clear
5:45 PM 93 °F - 64 °F 28% 29.81 in 19 mi SW 6.7 mph - -  
5:50 PM 89.6 °F 87.7 °F 55.4 °F 31% 29.95 in 10.0 mi WSW 9.2 mph - N/A   Clear
6:51 PM 87.8 °F 86.1 °F 55.4 °F 33% 29.85 in 10.0 mi WSW 6.9 mph - N/A   Clear
7:41 PM 82.4 °F 82.0 °F 57.2 °F 42% 29.86 in 10.0 mi SSW 6.9 mph - N/A   Clear
8:49 PM 78.8 °F - 60.8 °F 54% 29.99 in 10.0 mi South 11.5 mph - N/A   Clear
9:44 PM 75.2 °F - 60.8 °F 61% 29.91 in 10.0 mi South 6.9 mph - N/A   Clear
10:40 PM 73.4 °F - 62.6 °F 69% 29.91 in 10.0 mi South 6.9 mph - N/A   Clear
11:50 PM 94 °F - 66 °F 30% 29.91 in 2 mi South 6.7 mph - -